E24MSQ-13 Weather Reports


Display with metric or nautical units.
time (UTC)temp
F
wind
direction
speed
MPH
gust
MPH
rain 1hr
in
rain 24hr
in
rain mn
in
humidity
%
barometer
mb
20260504160356 87 0 0.0 0.0 0.00 0.00 0.00 69 1012.0
20260504150219 88 0 0.0 0.0 0.00 0.00 0.00 68 1011.0
20260504080620 95 0 0.0 0.0 0.00 0.00 0.00 53 1008.0
20260504050127 97 0 0.0 0.0 0.00 0.00 0.00 53 1010.0
20260504044602 97 0 0.0 0.0 0.00 0.00 0.00 53 1010.0
20260504043038 98 0 0.0 0.0 0.00 0.00 0.00 52 1010.0
20260504041514 97 0 0.0 0.0 0.00 0.00 0.00 54 1010.0
20260504035949 96 0 0.0 0.0 0.00 0.00 0.00 55 1011.0
20260504034425 97 0 0.0 0.0 0.00 0.00 0.00 47 1011.0
20260504032900 97 0 0.0 0.0 0.00 0.00 0.00 50 1011.0
20260504031336 96 0 0.0 0.0 0.00 0.00 0.00 51 1011.0
20260504025812 95 0 0.0 0.0 0.00 0.00 0.00 56 1011.0
20260504024247 95 0 0.0 0.0 0.00 0.00 0.00 58 1011.0
20260504022723 94 0 0.0 0.0 0.00 0.00 0.00 62 1011.0
20260504021158 94 0 0.0 0.0 0.00 0.00 0.00 63 1011.0
20260504015634 92 0 0.0 0.0 0.00 0.00 0.00 67 1011.0
20260504014110 92 0 0.0 0.0 0.00 0.00 0.00 68 1011.0
20260504012545 92 0 0.0 0.0 0.00 0.00 0.00 68 1011.0
20260504011021 91 0 0.0 0.0 0.00 0.00 0.00 68 1011.0
20260504005456 91 0 0.0 0.0 0.00 0.00 0.00 70 1011.0
20260504003932 90 0 0.0 0.0 0.00 0.00 0.00 72 1011.0
20260504002408 90 0 0.0 0.0 0.00 0.00 0.00 73 1010.0
20260504000843 89 0 0.0 0.0 0.00 0.00 0.00 74 1010.0
20260503235319 89 0 0.0 0.0 0.00 0.00 0.00 74 1010.0
20260503233755 88 0 0.0 0.0 0.00 0.00 0.00 75 1010.0
20260503232230 88 0 0.0 0.0 0.00 0.00 0.00 75 1010.0
20260503230706 88 0 0.0 0.0 0.00 0.00 0.00 75 1010.0
20260503225142 88 0 0.0 0.0 0.00 0.00 0.00 74 1010.0
20260503223617 89 0 0.0 0.0 0.00 0.00 0.00 74 1009.0
20260503222053 89 0 0.0 0.0 0.00 0.00 0.00 73 1009.0
20260503220528 89 0 0.0 0.0 0.00 0.00 0.00 73 1009.0
20260503215004 89 0 0.0 0.0 0.00 0.00 0.00 73 1009.0
20260503213439 89 0 0.0 0.0 0.00 0.00 0.00 72 1009.0
20260503211915 89 0 0.0 0.0 0.00 0.00 0.00 72 1009.0
20260503210350 89 0 0.0 0.0 0.00 0.00 0.00 72 1008.0
20260503204826 89 0 0.0 0.0 0.00 0.00 0.00 72 1008.0
20260503203302 89 0 0.0 0.0 0.00 0.00 0.00 72 1008.0
20260503201737 89 0 0.0 0.0 0.00 0.00 0.00 71 1008.0
20260503200213 89 0 0.0 0.0 0.00 0.00 0.00 70 1009.0
20260503194648 89 0 0.0 0.0 0.00 0.00 0.00 70 1009.0
20260503193124 90 0 0.0 0.0 0.00 0.00 0.00 69 1009.0
20260503191600 90 0 0.0 0.0 0.00 0.00 0.00 69 1009.0
20260503190035 90 0 0.0 0.0 0.00 0.00 0.00 69 1009.0
20260503184511 91 0 0.0 0.0 0.00 0.00 0.00 70 1009.0
20260503182946 91 0 0.0 0.0 0.00 0.00 0.00 70 1009.0
20260503181421 91 0 0.0 0.0 0.00 0.00 0.00 70 1010.0
20260503175857 91 0 0.0 0.0 0.00 0.00 0.00 71 1010.0
20260503174332 91 0 0.0 0.0 0.00 0.00 0.00 70 1010.0
20260503172808 91 0 0.0 0.0 0.00 0.00 0.00 70 1010.0
20260503171244 91 0 0.0 0.0 0.00 0.00 0.00 69 1010.0